Showing default

ION SCV-017, 63230

Orbit data source: Space-Track

ION SCV-017, 63230 is a payload satellite owned by D-ORBIT (IT) in SSO that was launched on Sat, 15 Mar 2025 UTC via an FALCON 9 launch vehicle from the Air Force Western Test Range (AFWTR). Payload-class satellites include a variety of spacecraft equipped with specific instruments for various scientific and technological missions. These include communications satellites like Starlink; space stations such as the ISS; scientific satellites like the Hubble; Earth observation satellites from companies like Planet Labs, Umbra, and HawkEye 360; GPS; miniature CubeSats for education and research; and military/defense satellites.

Loading next visibility...
Identifier
63230, 2025-052W
Orbit
SSO
Country
Flag of ITIT
Related business
Manufacturer
D-ORBIT
Mission
Operational Commercial Technology
Bus & Motor
ION-SC, PM200
Mass
220 kg wet, 150 kg dry
Launch date (UTC)
2025-03-15 (1 year ago)
Launch vehicle
FALCON 9
Launch site
Air Force Western Test Range (AFWTR)
Object type
Payload
Rocket body
Debris
Shape & HBR
Box, 0.8 m
Radar Cross Section
0.240 m², Large (>1 m²)

Expand to show TLE details & history
Last TLE update: 18 hours ago

TLE from 18 hours ago
0 ION SCV-017
1 63230U 25052W   26192.66101096  .00002616  00000-0  97984-4 0  9993
2 63230  97.3884  87.6295 0020782 327.5570  32.4391 15.27997897 73770
Epoch: 2026-07-11T15:51Z
TLE epoch observation values (Epoch: 2026-07-11T15:51:51.346Z)
Latitude
-0.00001°
Longitude
-79.90547°
Altitude
472.874 km
Speed
7.636 km/s
True Right ascension
05h 50m 31s
True Declination
0° 00' 00"
Sunlit
Object was in daylight at epoch
Visualization orbit readout
Latitude
Unknown
Longitude
Unknown
Altitude
Unknown
Speed
Unknown
Apparent Right ascension
Unknown
Apparent Declination
Unknown
Sunlit
N/A
Visualization observer readout
Local Sidereal Time
21:59:34
Azimuth
Unknown
Elevation
Unknown
Doppler factor
Unknown
Orbital elements
Apogee altitude
493.002 km
Perigee altitude
464.502 km
Semi-major axis
6,856.889 km
Eccentricity
0.00208
Inclination
97.3884°
RAAN
87.6295°
Arg. of periapsis
327.557°
True anomaly
32.56712°
Mean anomaly
32.4391°
Eccentric anomaly
32.50308°
Mean motion
3.82254 °/min
Orbital period
94.18 mins
BSTAR
0.000097984
Loading maneuver chart data...
Computing Atmospheric mass density...
Loading historical data...
Loading historical data...
Loading historical data...
Loading historical data...
Loading historical data...
Loading historical data...
Loading historical data...

Documentation

Showing up to 5 results
|